Location: Austin
(30.3000°N, 97.7500°W)
Time: 12:11:08
(UTC-05:00)

GP-B - Pass Details

Date: 03 April 2024
Orbit: 625 x 629 km, 89.8° (Epoch: 21 April)

Event Time Altitude Azimuth Distance (km) Brightness Sun altitude
Rises 04:59:41 0° 3° (N) 2,913 6.9 -29.2°
Reaches altitude 10° 05:01:54 10° 4° (N) 2,002 6.0 -28.7°
Enters shadow 05:04:25 34° 7° (N) 1,035 4.4 -28.3°
